Location: Bottens
(46.6171°N, 6.6605°E)
Time: 11:23:14
(UTC+00:00)

ATLAS 5 CENTAUR R/B - Pass Details

Date: 30 October 2021
Orbit: 497 x 1159 km, 63.4° (Epoch: 25 November)

Event Time Altitude Azimuth Distance (km) Brightness Sun altitude
Rises 19:24:41 0° 316° (NW) 2,924 5.8 -31.9°
Reaches altitude 10° 19:28:20 10° 347° (NNW) 2,160 4.6 -32.5°
Enters shadow 19:28:59 11° 355° (N) 2,105 4.4 -32.6°
